797  
ASUS45 KBOI 282210  
RWRID  
 
IDAHO REGIONAL WEATHER ROUNDUP  
NATIONAL WEATHER SERVICE BOISE ID  
300 PM MST SUN FEB 28 2021  
 
NOTE: "FAIR" INDICATES FEW OR NO CLOUDS BELOW 12000 FEET  
WITH NO SIGNIFICANT WEATHER AND/OR S TO VISIBILITY
 
 
IDZ012-014-282300-  
SOUTHWEST IDAHO  
 
 
CITY SKY/WX TMP DP RH WIND PRES REMARKS
 
BOISE CLOUDY 39 19 44 N6 30.34F WCI 35  
CALDWELL CLOUDY 42 22 44 NE5 30.36F  
MOUNTAIN HOME CLOUDY 42 20 41 N10 30.33S  

 
 
IDZ016-017-282300-  
SOUTHCENTRAL IDAHO  
 
 
CITY SKY/WX TMP DP RH WIND PRES REMARKS
 
BURLEY MOSUNNY 38 16 40 W12G20 30.28S WCI 30  
JEROME MOSUNNY 39 18 42 W14 30.29F WCI 31  
TWIN FALLS CLOUDY 38 17 42 W15G23 30.29F WCI 29  

 
 
IDZ019>023-282300-  
SOUTHEAST IDAHO  
 
 
CITY SKY/WX TMP DP RH WIND PRES REMARKS
 
IDAHO FALLS SUNNY 27 17 66 SW17 30.27S WCI 14  
POCATELLO MOSUNNY 34 17 50 W15G28 30.29R WCI 24  
REXBURG PTSUNNY 27 16 63 SW9 30.25F WCI 18  

 
 
IDZ006-010-011-018-031-032-282300-  
CENTRAL IDAHO MOUNTAINS  
 
 
CITY SKY/WX TMP DP RH WIND PRES REMARKS
 
MCCALL CLOUDY 23 12 62 CALM 30.25S  
HAILEY SUNNY 27 10 50 SE9 30.26R WCI 17  
STANLEY N/A 20 5 52 CALM 30.21S  
SALMON CLOUDY 25 9 50 N3 30.28S  
CHALLIS CLOUDY 30 7 37 NW5 30.20F WCI 25  

 
 
IDZ002-004-006-007-026-282300-  
NORTHERN IDAHO  
 
 
CITY SKY/WX TMP DP RH WIND PRES REMARKS
 
LEWISTON CLOUDY 50 30 46 S16 30.26S  
LOWELL N/A 36 28 73 NE5 30.37S WCI 32  
COEUR D'ALENE CLOUDY 38 30 73 S9 30.23R WCI 31  
MULLAN PASS HVY SNOW 25 19 78 VRB6 30.10R VSB 1/4 WCI 18  

 
 
 
CLICK HERE TO GO TO PREVIOUS BULLETINS.

The Nexlab ID Page Main Text Page